LVBWN SAZR-SADF

Flight info

Callsign LVBWN
Flight time N/A
Altitude 21000
Route TIMK2G TIMKU W73 IRASU W68 BODIR ASADA DCT
Aircraft B58T/L-SG/C

Departure

Time 2026-04-24 23:47
Airport Santa Rosa Airport (SAZR)

Arrival

Time N/A
Airport San Fernando Airport (SADF)
Time Latitude Longitude Altitude Speed Heading
2026-04-24 23:17 -36.59220 -64.27889 620 ft 0 kts 298°
2026-04-24 23:37 -36.59214 -64.27892 620 ft 4 kts 19°
2026-04-24 23:37 -36.59158 -64.27757 624 ft 0 kts 66°
2026-04-24 23:43 -36.59153 -64.27742 624 ft 6 kts 66°
2026-04-24 23:43 -36.59126 -64.27665 626 ft 14 kts 62°
2026-04-24 23:43 -36.59013 -64.27611 619 ft 21 kts 11°
2026-04-24 23:43 -36.58848 -64.27569 621 ft 27 kts 11°
2026-04-24 23:44 -36.58649 -64.27522 627 ft 32 kts 10°
2026-04-24 23:44 -36.58424 -64.27466 625 ft 32 kts 13°
2026-04-24 23:44 -36.58226 -64.27414 626 ft 27 kts 11°
2026-04-24 23:44 -36.58056 -64.27376 625 ft 23 kts 12°
2026-04-24 23:45 -36.57912 -64.27342 629 ft 19 kts 12°
2026-04-24 23:45 -36.57808 -64.27311 629 ft 4 kts 284°
2026-04-24 23:45 -36.57830 -64.27318 636 ft 0 kts 192°
2026-04-24 23:46 -36.58154 -64.27399 631 ft 88 kts 191°
2026-04-24 23:46 -36.58914 -64.27574 770 ft 120 kts 192°
2026-04-24 23:47 -36.59742 -64.27779 1251 ft 122 kts 192°
2026-04-24 23:47 -36.60565 -64.27894 1772 ft 120 kts 179°
2026-04-24 23:47 -36.61357 -64.27586 2195 ft 124 kts 143°
2026-04-24 23:47 -36.61852 -64.26693 2645 ft 127 kts 120°
2026-04-24 23:48 -36.62231 -64.25720 3164 ft 121 kts 122°
2026-04-24 23:48 -36.62618 -64.24778 3517 ft 125 kts 123°
2026-04-24 23:48 -36.63076 -64.23831 3779 ft 129 kts 124°
2026-04-24 23:48 -36.63545 -64.22887 4088 ft 128 kts 126°
2026-04-24 23:49 -36.63987 -64.21926 4385 ft 130 kts 125°
2026-04-24 23:49 -36.64460 -64.20950 4699 ft 133 kts 126°
2026-04-24 23:49 -36.64949 -64.19955 5005 ft 136 kts 126°
2026-04-24 23:49 -36.65446 -64.18943 5304 ft 138 kts 125°
2026-04-24 23:50 -36.65952 -64.17907 5611 ft 141 kts 124°
2026-04-24 23:50 -36.66463 -64.16862 5908 ft 144 kts 124°
2026-04-24 23:50 -36.66989 -64.15786 6215 ft 146 kts 124°
2026-04-24 23:50 -36.67486 -64.14662 6519 ft 150 kts 109°
2026-04-24 23:51 -36.67515 -64.13366 6814 ft 152 kts 75°
2026-04-24 23:51 -36.67023 -64.12233 7107 ft 151 kts 42°
2026-04-24 23:51 -36.66243 -64.11345 7402 ft 153 kts 39°
2026-04-24 23:51 -36.65457 -64.10440 7705 ft 155 kts 38°
2026-04-24 23:52 -36.64654 -64.09526 8005 ft 157 kts 38°
2026-04-24 23:52 -36.63838 -64.08600 8310 ft 159 kts 38°
2026-04-24 23:52 -36.63019 -64.07671 8611 ft 162 kts 37°
2026-04-24 23:52 -36.62180 -64.06719 8921 ft 164 kts 37°
2026-04-24 23:53 -36.61332 -64.05756 9234 ft 166 kts 37°
2026-04-24 23:53 -36.60483 -64.04793 9544 ft 168 kts 37°
2026-04-24 23:53 -36.59612 -64.03804 9861 ft 170 kts 36°
2026-04-24 23:53 -36.58743 -64.02819 10146 ft 171 kts 36°
2026-04-24 23:54 -36.57853 -64.01809 10446 ft 173 kts 36°
2026-04-24 23:54 -36.56966 -64.00804 10734 ft 174 kts 36°
2026-04-24 23:54 -36.56063 -63.99780 11026 ft 175 kts 35°
2026-04-24 23:54 -36.55161 -63.98759 11321 ft 177 kts 35°
2026-04-24 23:55 -36.54240 -63.97716 11621 ft 178 kts 34°
2026-04-24 23:55 -36.53317 -63.96671 11921 ft 180 kts 34°
2026-04-24 23:55 -36.52396 -63.95630 12222 ft 181 kts 34°
2026-04-24 23:55 -36.51457 -63.94567 12543 ft 181 kts 33°
2026-04-24 23:56 -36.50528 -63.93515 12878 ft 181 kts 32°
2026-04-24 23:56 -36.49599 -63.92465 13215 ft 181 kts 32°
2026-04-24 23:56 -36.48674 -63.91420 13544 ft 181 kts 32°
2026-04-24 23:56 -36.47748 -63.90374 13885 ft 181 kts 31°
2026-04-24 23:57 -36.46805 -63.89310 14192 ft 181 kts 31°
2026-04-24 23:57 -36.45880 -63.88265 14490 ft 181 kts 31°
2026-04-24 23:57 -36.44940 -63.87204 14807 ft 182 kts 31°
2026-04-24 23:57 -36.44006 -63.86151 15124 ft 182 kts 31°
2026-04-24 23:58 -36.43070 -63.85095 15441 ft 182 kts 31°
2026-04-24 23:58 -36.42129 -63.84034 15760 ft 183 kts 31°
2026-04-24 23:58 -36.41191 -63.82977 16085 ft 183 kts 31°
2026-04-24 23:58 -36.40256 -63.81923 16406 ft 183 kts 31°
2026-04-24 23:59 -36.39314 -63.80863 16734 ft 183 kts 31°
2026-04-24 23:59 -36.38368 -63.79798 17068 ft 183 kts 31°
2026-04-24 23:59 -36.37428 -63.78740 17419 ft 183 kts 31°
2026-04-24 23:59 -36.36488 -63.77683 17743 ft 183 kts 31°
2026-04-25 00:00 -36.35537 -63.76613 18093 ft 183 kts 31°
2026-04-25 00:00 -36.34591 -63.75550 18418 ft 184 kts 31°
2026-04-25 00:00 -36.33652 -63.74444 18696 ft 190 kts 42°
2026-04-25 00:00 -36.32963 -63.73009 18983 ft 196 kts 54°
2026-04-25 00:01 -36.32291 -63.71544 19265 ft 198 kts 52°
2026-04-25 00:01 -36.31597 -63.70056 19505 ft 202 kts 53°
2026-04-25 00:01 -36.30890 -63.68524 19754 ft 205 kts 53°
2026-04-25 00:01 -36.30182 -63.66986 20006 ft 208 kts 53°
2026-04-25 00:02 -36.29466 -63.65433 20284 ft 209 kts 53°
2026-04-25 00:02 -36.28742 -63.63864 20558 ft 209 kts 53°
2026-04-25 00:02 -36.28022 -63.62303 20835 ft 209 kts 52°
2026-04-25 00:02 -36.27296 -63.60734 21060 ft 213 kts 52°
2026-04-25 00:03 -36.26528 -63.59086 21075 ft 226 kts 53°
2026-04-25 00:03 -36.25731 -63.57364 21073 ft 237 kts 53°
2026-04-25 00:03 -36.24888 -63.55538 21071 ft 247 kts 54°
2026-04-25 00:03 -36.24022 -63.53667 21076 ft 255 kts 54°
2026-04-25 00:04 -36.23137 -63.51753 21073 ft 259 kts 54°
2026-04-25 00:04 -36.22228 -63.49791 21070 ft 264 kts 54°
2026-04-25 00:04 -36.21308 -63.47808 21066 ft 269 kts 54°
2026-04-25 00:04 -36.20367 -63.45781 21067 ft 271 kts 54°
2026-04-25 00:05 -36.19438 -63.43776 21070 ft 271 kts 54°
2026-04-25 00:05 -36.18500 -63.41761 21068 ft 272 kts 54°
2026-04-25 00:05 -36.17548 -63.39714 21069 ft 273 kts 54°
2026-04-25 00:05 -36.16608 -63.37692 21060 ft 272 kts 54°
2026-04-25 00:06 -36.15668 -63.35670 21059 ft 269 kts 54°
2026-04-25 00:06 -36.14740 -63.33678 21057 ft 267 kts 54°
2026-04-25 00:06 -36.13810 -63.31685 21051 ft 266 kts 54°
2026-04-25 00:06 -36.12896 -63.29725 21045 ft 265 kts 54°
2026-04-25 00:07 -36.11973 -63.27748 21047 ft 263 kts 54°
2026-04-25 00:07 -36.11067 -63.25809 21047 ft 263 kts 54°
2026-04-25 00:07 -36.10153 -63.23852 21045 ft 262 kts 54°
2026-04-25 00:07 -36.09239 -63.21897 21041 ft 262 kts 54°
2026-04-25 00:08 -36.08327 -63.19949 21038 ft 261 kts 54°
2026-04-25 00:08 -36.07428 -63.18028 21039 ft 261 kts 54°
2026-04-25 00:08 -36.06518 -63.16085 21039 ft 261 kts 54°
2026-04-25 00:08 -36.05605 -63.14137 21040 ft 260 kts 54°
2026-04-25 00:09 -36.04697 -63.12200 21037 ft 260 kts 54°
2026-04-25 00:09 -36.03800 -63.10288 21037 ft 260 kts 54°
2026-04-25 00:09 -36.02892 -63.08354 21039 ft 260 kts 54°
2026-04-25 00:09 -36.01985 -63.06424 21041 ft 260 kts 54°
2026-04-25 00:10 -36.01077 -63.04491 21039 ft 260 kts 54°
2026-04-25 00:10 -36.00169 -63.02560 21041 ft 259 kts 54°
2026-04-25 00:10 -35.99260 -63.00628 21038 ft 259 kts 53°
2026-04-25 00:10 -35.98366 -62.98729 21038 ft 259 kts 53°
2026-04-25 00:11 -35.97455 -62.96795 21040 ft 259 kts 53°
2026-04-25 00:11 -35.96851 -62.95513 21042 ft 259 kts 53°
2026-04-25 00:11 -35.95644 -62.92954 21039 ft 259 kts 53°
2026-04-25 00:11 -35.94735 -62.91028 21040 ft 259 kts 53°
2026-04-25 00:12 -35.93829 -62.89108 21036 ft 259 kts 53°
2026-04-25 00:12 -35.92920 -62.87185 21035 ft 259 kts 53°
2026-04-25 00:12 -35.92011 -62.85261 21033 ft 259 kts 53°
2026-04-25 00:12 -35.91099 -62.83332 21036 ft 259 kts 53°
2026-04-25 00:13 -35.90198 -62.81429 21037 ft 259 kts 53°
2026-04-25 00:13 -35.89284 -62.79498 21032 ft 259 kts 54°
2026-04-25 00:13 -35.88375 -62.77579 21034 ft 259 kts 54°
2026-04-25 00:13 -35.87475 -62.75681 21031 ft 259 kts 53°
2026-04-25 00:14 -35.86561 -62.73754 21033 ft 259 kts 54°
2026-04-25 00:14 -35.85651 -62.71834 21032 ft 259 kts 54°
2026-04-25 00:14 -35.84741 -62.69918 21028 ft 259 kts 53°
2026-04-25 00:14 -35.83830 -62.68001 21032 ft 259 kts 54°
2026-04-25 00:15 -35.82928 -62.66102 21030 ft 259 kts 54°
2026-04-25 00:15 -35.82014 -62.64181 21031 ft 259 kts 54°
2026-04-25 00:15 -35.81099 -62.62259 21028 ft 259 kts 54°
2026-04-25 00:15 -35.80186 -62.60341 21029 ft 259 kts 53°
2026-04-25 00:16 -35.79285 -62.58449 21029 ft 259 kts 54°
2026-04-25 00:16 -35.78366 -62.56521 21028 ft 259 kts 54°
2026-04-25 00:16 -35.77452 -62.54604 21029 ft 259 kts 54°
2026-04-25 00:16 -35.76537 -62.52687 21029 ft 259 kts 54°
2026-04-25 00:17 -35.75634 -62.50796 21026 ft 259 kts 53°
2026-04-25 00:17 -35.74720 -62.48882 21028 ft 259 kts 54°
2026-04-25 00:17 -35.73803 -62.46964 21026 ft 259 kts 54°
2026-04-25 00:17 -35.72886 -62.45047 21030 ft 259 kts 53°
2026-04-25 00:18 -35.72281 -62.43782 21027 ft 259 kts 53°
2026-04-25 00:18 -35.71365 -62.41870 21026 ft 259 kts 53°
2026-04-25 00:18 -35.70449 -62.39956 21025 ft 259 kts 53°
2026-04-25 00:18 -35.69234 -62.37422 21029 ft 259 kts 53°
2026-04-25 00:19 -35.68319 -62.35513 21028 ft 259 kts 53°
2026-04-25 00:19 -35.67697 -62.34218 21029 ft 259 kts 53°
2026-04-25 00:19 -35.66791 -62.32330 21028 ft 259 kts 53°
2026-04-25 00:19 -35.65874 -62.30421 21027 ft 259 kts 53°
2026-04-25 00:20 -35.64955 -62.28509 21029 ft 259 kts 53°
2026-04-25 00:20 -35.64046 -62.26619 21028 ft 259 kts 53°
2026-04-25 00:20 -35.63127 -62.24708 21028 ft 259 kts 53°
2026-04-25 00:20 -35.62211 -62.22806 21028 ft 259 kts 53°
2026-04-25 00:21 -35.61290 -62.20894 21029 ft 259 kts 53°
2026-04-25 00:21 -35.60373 -62.18991 21029 ft 259 kts 53°
2026-04-25 00:21 -35.59467 -62.17110 21027 ft 259 kts 53°
2026-04-25 00:21 -35.58546 -62.15203 21023 ft 259 kts 53°
2026-04-25 00:22 -35.57628 -62.13301 21031 ft 258 kts 53°
2026-04-25 00:22 -35.56712 -62.11404 21031 ft 258 kts 53°
2026-04-25 00:22 -35.55799 -62.09515 21027 ft 258 kts 53°
2026-04-25 00:22 -35.54879 -62.07612 21027 ft 258 kts 53°
2026-04-25 00:23 -35.53961 -62.05715 21025 ft 258 kts 53°
2026-04-25 00:23 -35.53047 -62.03825 21027 ft 258 kts 53°
2026-04-25 00:23 -35.52125 -62.01924 21028 ft 258 kts 53°
2026-04-25 00:23 -35.51224 -62.00064 21027 ft 258 kts 53°
2026-04-25 00:24 -35.50306 -61.98169 21027 ft 258 kts 53°
2026-04-25 00:24 -35.49383 -61.96267 21029 ft 258 kts 53°
2026-04-25 00:24 -35.48460 -61.94365 21027 ft 258 kts 53°
2026-04-25 00:24 -35.47554 -61.92500 21028 ft 257 kts 53°
2026-04-25 00:25 -35.46636 -61.90613 21028 ft 257 kts 53°